W5SDC Weather Reports


Display with metric or nautical units.
time (UTC)temp
F
wind
direction
speed
MPH
gust
MPH
rain 1hr
in
rain 24hr
in
rain mn
in
humidity
%
barometer
mb
20260831150028 86 201 5.0 7.0 0.00 0.00 0.00 75 1018.4
20260831145517 85 184 6.0 9.0 0.00 0.00 0.00 76 1018.4
20260831145023 86 211 5.0 8.0 0.00 0.00 0.00 75 1018.4
20260831144549 84 212 5.0 8.0 0.00 0.00 0.00 77 1018.4
20260831144017 83 175 6.0 10.0 0.00 0.00 0.00 79 1018.3
20260831143524 83 190 6.0 8.0 0.00 0.00 0.00 80 1018.2
20260831143031 83 192 5.0 7.0 0.00 0.00 0.00 79 1018.2
20260831142519 84 170 5.0 8.0 0.00 0.00 0.00 79 1018.2
20260831142025 84 184 4.0 6.0 0.00 0.00 0.00 79 1018.2
20260831141532 83 211 6.0 9.0 0.00 0.00 0.00 81 1018.1
20260831141020 82 238 5.0 8.0 0.00 0.00 0.00 82 1018.0
20260831140527 82 213 7.0 11.0 0.00 0.00 0.00 82 1018.0
20260831140033 82 206 6.0 8.0 0.00 0.00 0.00 82 1017.9
20260831135521 83 209 6.0 11.0 0.00 0.00 0.00 82 1017.9
20260831135028 82 199 3.0 5.0 0.00 0.00 0.00 84 1017.9
20260831134516 81 227 5.0 7.0 0.00 0.00 0.00 85 1017.8
20260831134022 81 217 6.0 8.0 0.00 0.00 0.00 86 1017.9
20260831133549 81 227 4.0 6.0 0.00 0.00 0.00 87 1017.9
20260831133017 80 192 6.0 8.0 0.00 0.00 0.00 88 1017.9
20260831132523 80 193 3.0 5.0 0.00 0.00 0.00 89 1017.8
20260831132050 79 174 4.0 6.0 0.00 0.00 0.00 90 1017.8
20260831131518 78 220 4.0 5.0 0.00 0.00 0.00 91 1017.8
20260831130526 77 237 4.0 6.0 0.00 0.00 0.00 93 1017.6
20260831130052 77 188 3.0 4.0 0.00 0.00 0.00 94 1017.5
20260831125523 76 193 3.0 5.0 0.00 0.00 0.00 96 1017.5
20260831125029 75 205 2.0 4.0 0.00 0.00 0.00 97 1017.4
20260831124518 75 175 4.0 6.0 0.00 0.00 0.00 97 1017.4
20260831124019 75 199 3.0 5.0 0.00 0.00 0.00 97 1017.4
20260831123546 74 186 3.0 4.0 0.00 0.00 0.00 97 1017.3
20260831123032 74 206 3.0 5.0 0.00 0.00 0.00 97 1017.3
20260831122520 74 169 3.0 5.0 0.00 0.00 0.00 97 1017.3
20260831122027 75 176 3.0 6.0 0.00 0.00 0.00 97 1017.3
20260831121515 75 177 3.0 4.0 0.00 0.00 0.00 97 1017.3
20260831121041 75 177 4.0 5.0 0.00 0.00 0.00 97 1017.2
20260831120528 75 181 3.0 5.0 0.00 0.00 0.00 97 1017.2
20260831120056 75 195 4.0 6.0 0.00 0.00 0.00 96 1017.2
20260831115523 75 178 5.0 7.0 0.00 0.00 0.00 96 1017.2
20260831115049 75 211 5.0 7.0 0.00 0.00 0.00 96 1017.2
20260831114557 75 209 4.0 6.0 0.00 0.00 0.00 96 1017.2
20260831114024 75 198 5.0 8.0 0.00 0.00 0.00 96 1017.2
20260831113531 75 192 5.0 7.0 0.00 0.00 0.00 96 1017.2
20260831113039 75 172 4.0 6.0 0.00 0.00 0.00 96 1017.2
20260831112525 75 214 4.0 6.0 0.00 0.00 0.00 96 1017.2
20260831112032 75 204 4.0 7.0 0.00 0.00 0.00 96 1017.2
20260831111520 75 204 4.0 6.0 0.00 0.00 0.00 95 1017.1
20260831111027 75 207 5.0 8.0 0.00 0.00 0.00 95 1017.0
20260831110515 75 215 5.0 8.0 0.00 0.00 0.00 95 1017.0
20260831110021 75 190 5.0 7.0 0.00 0.00 0.00 95 1017.1
20260831105528 75 183 5.0 8.0 0.00 0.00 0.00 94 1017.1
20260831105016 76 182 5.0 8.0 0.00 0.00 0.00 94 1017.1
20260831104523 76 209 7.0 9.0 0.00 0.00 0.00 94 1017.1
20260831104029 76 204 4.0 6.0 0.00 0.00 0.00 94 1017.1
20260831103517 76 196 5.0 8.0 0.00 0.00 0.00 94 1017.1
20260831103024 75 169 5.0 7.0 0.00 0.00 0.00 94 1017.1
20260831102530 75 190 6.0 8.0 0.00 0.00 0.00 94 1017.2
20260831102039 75 191 5.0 7.0 0.00 0.00 0.00 94 1017.2
20260831101525 76 183 4.0 9.0 0.00 0.00 0.00 94 1017.2
20260831101032 76 198 5.0 9.0 0.00 0.00 0.00 94 1017.2
20260831100540 76 188 4.0 8.0 0.00 0.00 0.00 94 1017.2
20260831100046 76 206 4.0 6.0 0.00 0.00 0.00 93 1017.1
20260831095533 76 182 5.0 7.0 0.00 0.00 0.00 93 1017.1
20260831095021 75 162 5.0 8.0 0.00 0.00 0.00 93 1017.2
20260831094527 75 197 4.0 6.0 0.00 0.00 0.00 93 1017.2
20260831094016 75 210 6.0 9.0 0.00 0.00 0.00 93 1017.1
20260831093522 75 187 5.0 8.0 0.00 0.00 0.00 93 1017.0
20260831093029 75 199 5.0 7.0 0.00 0.00 0.00 93 1017.0
20260831092517 76 187 4.0 6.0 0.00 0.00 0.00 93 1017.0
20260831092023 76 199 5.0 9.0 0.00 0.00 0.00 93 1017.0
20260831091550 76 184 6.0 9.0 0.00 0.00 0.00 93 1016.9
20260831091059 76 196 6.0 9.0 0.00 0.00 0.00 92 1016.9
20260831090525 76 206 6.0 10.0 0.00 0.00 0.00 92 1016.9
20260831090032 76 190 6.0 9.0 0.00 0.00 0.00 92 1017.0
20260831085520 76 170 8.0 14.0 0.00 0.00 0.00 92 1017.0
20260831085046 76 176 6.0 8.0 0.00 0.00 0.00 91 1017.0
20260831084514 76 193 6.0 10.0 0.00 0.00 0.00 91 1017.1
20260831084021 76 171 5.0 8.0 0.00 0.00 0.00 90 1017.1
20260831083527 76 196 6.0 9.0 0.00 0.00 0.00 90 1017.1
20260831083016 76 184 5.0 9.0 0.00 0.00 0.00 89 1017.1
20260831082523 76 174 6.0 9.0 0.00 0.00 0.00 88 1017.1
20260831082029 76 193 6.0 9.0 0.00 0.00 0.00 87 1017.1
20260831081537 77 159 6.0 10.0 0.00 0.00 0.00 87 1017.0
20260831081023 77 183 6.0 8.0 0.00 0.00 0.00 86 1017.0
20260831080711 77 196 6.0 9.0 0.00 0.00 0.00 85 1017.0
20260831080018 77 176 5.0 9.0 0.00 0.00 0.00 84 1017.0
20260831075525 77 178 6.0 7.0 0.00 0.00 0.00 84 1017.0
20260831075051 77 190 5.0 7.0 0.00 0.00 0.00 83 1017.0
20260831074520 77 188 6.0 7.0 0.00 0.00 0.00 83 1017.0
20260831074026 77 193 4.0 6.0 0.00 0.00 0.00 83 1017.0
20260831073533 78 183 4.0 6.0 0.00 0.00 0.00 82 1017.1
20260831073021 78 181 4.0 5.0 0.00 0.00 0.00 82 1017.1
20260831072528 78 170 4.0 6.0 0.00 0.00 0.00 81 1017.2
20260831072015 78 170 4.0 7.0 0.00 0.00 0.00 81 1017.2
20260831071522 79 198 5.0 9.0 0.00 0.00 0.00 80 1017.1
20260831071029 79 203 6.0 9.0 0.00 0.00 0.00 80 1017.1
20260831070537 79 180 7.0 10.0 0.00 0.00 0.00 80 1017.1
20260831070044 79 185 7.0 11.0 0.00 0.00 0.00 80 1017.2
20260831065530 79 203 6.0 9.0 0.00 0.00 0.00 80 1017.2
20260831065018 79 213 6.0 9.0 0.00 0.00 0.00 80 1017.3
20260831064525 79 189 5.0 7.0 0.00 0.00 0.00 79 1017.3
20260831064031 79 192 4.0 6.0 0.00 0.00 0.00 79 1017.3
20260831063519 80 192 5.0 9.0 0.00 0.00 0.00 79 1017.3
20260831063026 80 170 5.0 7.0 0.00 0.00 0.00 78 1017.3
20260831062532 80 200 4.0 8.0 0.00 0.00 0.00 78 1017.2
20260831062021 80 184 4.0 7.0 0.00 0.00 0.00 78 1017.2
20260831061527 80 174 4.0 6.0 0.00 0.00 0.00 77 1017.1
20260831061016 80 181 3.0 6.0 0.00 0.00 0.00 77 1017.1
20260831060522 80 166 4.0 5.0 0.00 0.00 0.00 76 1017.1
20260831060029 81 190 4.0 7.0 0.00 0.00 0.00 76 1017.0
20260831055517 81 170 5.0 7.0 0.00 0.00 0.00 75 1017.0
20260831055104 81 173 3.0 6.0 0.00 0.00 0.00 75 1016.9
20260831054530 81 174 4.0 6.0 0.00 0.00 0.00 74 1016.9
20260831054018 81 157 5.0 7.0 0.00 0.00 0.00 74 1016.9
20260831053545 81 178 4.0 7.0 0.00 0.00 0.00 73 1016.9
20260831053031 82 172 5.0 7.0 0.00 0.00 0.00 73 1016.9
20260831052519 82 172 5.0 7.0 0.00 0.00 0.00 72 1016.8
20260831052026 82 130 4.0 6.0 0.00 0.00 0.00 72 1016.8
20260831051533 82 160 4.0 7.0 0.00 0.00 0.00 71 1016.8
20260831051041 82 168 5.0 7.0 0.00 0.00 0.00 71 1016.8
20260831050527 82 180 5.0 9.0 0.00 0.00 0.00 71 1016.8
20260831050015 83 162 5.0 7.0 0.00 0.00 0.00 70 1016.7
20260831045522 83 175 6.0 10.0 0.00 0.00 0.00 70 1016.7
20260831045028 83 181 6.0 10.0 0.00 0.00 0.00 70 1016.6
20260831044517 83 169 6.0 8.0 0.00 0.00 0.00 69 1016.6
20260831044023 83 175 6.0 8.0 0.00 0.00 0.00 69 1016.6
20260831043530 83 167 8.0 11.0 0.00 0.00 0.00 68 1016.7
20260831043018 84 170 9.0 12.0 0.00 0.00 0.00 68 1016.7
20260831042525 84 153 6.0 9.0 0.00 0.00 0.00 67 1016.6
20260831042031 84 182 8.0 10.0 0.00 0.00 0.00 67 1016.6
20260831041559 84 169 8.0 13.0 0.00 0.00 0.00 66 1016.6
20260831041026 84 147 7.0 10.0 0.00 0.00 0.00 66 1016.6
20260831040532 84 170 7.0 12.0 0.00 0.00 0.00 66 1016.5
20260831040021 84 171 7.0 11.0 0.00 0.00 0.00 65 1016.4
20260831035527 84 162 6.0 9.0 0.00 0.00 0.00 65 1016.4
20260831035016 85 172 6.0 9.0 0.00 0.00 0.00 65 1016.3
20260831034522 85 156 6.0 9.0 0.00 0.00 0.00 65 1016.3
20260831034028 85 186 8.0 13.0 0.00 0.00 0.00 64 1016.3
20260831033537 85 155 7.0 10.0 0.00 0.00 0.00 64 1016.2
20260831033023 85 167 8.0 12.0 0.00 0.00 0.00 64 1016.2
20260831032530 85 136 9.0 11.0 0.00 0.00 0.00 64 1016.1
20260831032018 85 160 8.0 11.0 0.00 0.00 0.00 64 1016.0
20260831031525 86 161 6.0 8.0 0.00 0.00 0.00 64 1015.9
20260831031031 86 147 8.0 11.0 0.00 0.00 0.00 64 1015.8
20260831030519 86 164 7.0 17.0 0.00 0.00 0.00 64 1015.8
20260831030026 86 152 7.0 10.0 0.00 0.00 0.00 64 1015.5
20260831025532 86 131 8.0 11.0 0.00 0.00 0.00 63 1015.5
20260831025021 87 144 6.0 8.0 0.00 0.00 0.00 62 1015.5
20260831024527 87 152 7.0 11.0 0.00 0.00 0.00 62 1015.5
20260831024015 87 130 9.0 12.0 0.00 0.00 0.00 61 1015.4
20260831023522 87 167 7.0 10.0 0.00 0.00 0.00 61 1015.3
20260831023048 87 164 8.0 15.0 0.00 0.00 0.00 60 1015.3
20260831022517 88 143 9.0 12.0 0.00 0.00 0.00 58 1015.0
20260831022043 88 147 9.0 15.0 0.00 0.00 0.00 56 1015.0
20260831021530 88 135 9.0 13.0 0.00 0.00 0.00 54 1014.9
20260831021038 88 132 9.0 13.0 0.00 0.00 0.00 52 1014.7
20260831020031 88 116 4.0 6.0 0.00 0.00 0.00 51 1014.7
20260831015519 89 144 4.0 6.0 0.00 0.00 0.00 51 1014.7
20260831015026 89 137 4.0 5.0 0.00 0.00 0.00 51 1014.7
20260831014532 89 133 4.0 6.0 0.00 0.00 0.00 51 1014.6
20260831014020 89 150 4.0 5.0 0.00 0.00 0.00 51 1014.6
20260831013527 89 151 4.0 6.0 0.00 0.00 0.00 51 1014.4
20260831013035 89 128 3.0 5.0 0.00 0.00 0.00 51 1014.4
20260831012521 90 123 3.0 4.0 0.00 0.00 0.00 51 1014.3
20260831012028 90 138 3.0 4.0 0.00 0.00 0.00 50 1014.3
20260831011516 90 141 3.0 5.0 0.00 0.00 0.00 50 1014.3
20260831011024 90 133 3.0 5.0 0.00 0.00 0.00 50 1014.3
20260831010549 91 134 4.0 5.0 0.00 0.00 0.00 49 1014.3
20260831010017 91 137 4.0 6.0 0.00 0.00 0.00 49 1014.3
20260831005524 91 152 3.0 4.0 0.00 0.00 0.00 49 1014.3
20260831005050 92 135 5.0 7.0 0.00 0.00 0.00 48 1014.2
20260831004519 92 134 4.0 6.0 0.00 0.00 0.00 48 1014.2
20260831004025 93 131 5.0 8.0 0.00 0.00 0.00 47 1014.2
20260831003532 93 141 6.0 10.0 0.00 0.00 0.00 46 1014.2
20260831003019 93 143 6.0 8.0 0.00 0.00 0.00 46 1014.2
20260831002526 94 126 6.0 10.0 0.00 0.00 0.00 45 1014.1
20260831002033 95 138 5.0 7.0 0.00 0.00 0.00 45 1014.1
20260831001541 95 139 6.0 8.0 0.00 0.00 0.00 44 1014.2
20260831001028 96 136 5.0 6.0 0.00 0.00 0.00 44 1014.2
20260831000516 97 140 5.0 7.0 0.00 0.00 0.00 42 1014.2
20260831000022 96 165 5.0 8.0 0.00 0.00 0.00 43 1014.2
20260830235529 97 157 4.0 8.0 0.00 0.00 0.00 42 1014.2
20260830235037 97 172 4.0 7.0 0.00 0.00 0.00 42 1014.2
20260830234524 96 180 4.0 6.0 0.00 0.00 0.00 42 1014.2
20260830234030 97 185 6.0 9.0 0.00 0.00 0.00 42 1014.2
20260830233518 97 193 5.0 7.0 0.00 0.00 0.00 42 1014.2
20260830233025 98 207 4.0 7.0 0.00 0.00 0.00 42 1014.2
20260830232532 97 214 5.0 8.0 0.00 0.00 0.00 42 1014.2
20260830232019 98 160 5.0 7.0 0.00 0.00 0.00 42 1014.2
20260830231526 97 170 3.0 5.0 0.00 0.00 0.00 42 1014.3
20260830231033 97 175 3.0 5.0 0.00 0.00 0.00 42 1014.3
20260830230521 97 123 4.0 7.0 0.00 0.00 0.00 42 1014.3
20260830230027 97 139 4.0 7.0 0.00 0.00 0.00 42 1014.4
20260830225516 97 176 7.0 10.0 0.00 0.00 0.00 42 1014.4
20260830225022 97 148 5.0 7.0 0.00 0.00 0.00 42 1014.4
20260830224529 97 164 6.0 8.0 0.00 0.00 0.00 42 1014.4
20260830224017 97 169 4.0 6.0 0.00 0.00 0.00 43 1014.4
20260830223523 97 161 5.0 9.0 0.00 0.00 0.00 42 1014.5
20260830223030 97 150 5.0 9.0 0.00 0.00 0.00 42 1014.5
20260830222518 97 128 6.0 11.0 0.00 0.00 0.00 43 1014.5
20260830222045 97 184 6.0 8.0 0.00 0.00 0.00 44 1014.5
20260830221531 97 185 5.0 8.0 0.00 0.00 0.00 44 1014.5
20260830221020 97 146 5.0 7.0 0.00 0.00 0.00 44 1014.6
20260830220526 97 126 6.0 8.0 0.00 0.00 0.00 43 1014.6
20260830220032 97 158 6.0 10.0 0.00 0.00 0.00 44 1014.6
20260830215541 97 158 7.0 9.0 0.00 0.00 0.00 44 1014.6
20260830215027 98 132 6.0 9.0 0.00 0.00 0.00 44 1014.7
20260830214516 97 165 6.0 8.0 0.00 0.00 0.00 45 1014.8
20260830214022 96 177 7.0 10.0 0.00 0.00 0.00 45 1014.8
20260830213549 97 131 7.0 11.0 0.00 0.00 0.00 45 1014.9
20260830213017 96 158 7.0 12.0 0.00 0.00 0.00 45 1014.9
20260830212524 97 149 7.0 10.0 0.00 0.00 0.00 46 1015.2
20260830212050 95 142 6.0 8.0 0.00 0.00 0.00 47 1015.3
20260830211519 96 140 7.0 11.0 0.00 0.00 0.00 46 1015.3
20260830211024 98 170 5.0 8.0 0.00 0.00 0.00 45 1015.3
20260830210552 97 220 5.0 11.0 0.00 0.00 0.00 46 1015.3
20260830210040 97 182 7.0 9.0 0.00 0.00 0.00 46 1015.5
20260830205526 97 148 8.0 10.0 0.00 0.00 0.00 45 1015.5
20260830205113 98 191 7.0 10.0 0.00 0.00 0.00 45 1015.7
20260830204520 97 200 7.0 8.0 0.00 0.00 0.00 45 1015.8
20260830204027 97 144 5.0 9.0 0.00 0.00 0.00 45 1015.8
20260830203515 96 170 7.0 10.0 0.00 0.00 0.00 46 1015.8
20260830203022 96 185 7.0 12.0 0.00 0.00 0.00 47 1015.8
20260830202529 96 189 7.0 9.0 0.00 0.00 0.00 47 1016.0
20260830202017 97 133 5.0 9.0 0.00 0.00 0.00 46 1016.0
20260830201543 96 153 6.0 10.0 0.00 0.00 0.00 48 1016.1
20260830201050 96 132 6.0 9.0 0.00 0.00 0.00 47 1016.2
20260830200518 95 164 8.0 11.0 0.00 0.00 0.00 49 1016.2
20260830200024 97 139 6.0 10.0 0.00 0.00 0.00 47 1016.4
20260830195531 96 173 5.0 9.0 0.00 0.00 0.00 48 1016.4
20260830195019 96 146 7.0 10.0 0.00 0.00 0.00 50 1016.4
20260830194526 96 184 6.0 12.0 0.00 0.00 0.00 50 1016.5
20260830194032 96 199 5.0 8.0 0.00 0.00 0.00 51 1016.5
20260830193541 95 157 7.0 9.0 0.00 0.00 0.00 51 1016.7
20260830193027 95 144 9.0 12.0 0.00 0.00 0.00 51 1016.7
20260830192515 95 147 4.0 7.0 0.00 0.00 0.00 51 1016.8
20260830192022 95 140 8.0 12.0 0.00 0.00 0.00 52 1016.9
20260830191529 95 147 5.0 9.0 0.00 0.00 0.00 52 1016.9
20260830191017 95 132 7.0 10.0 0.00 0.00 0.00 51 1017.0
20260830190544 95 127 7.0 14.0 0.00 0.00 0.00 52 1017.0
20260830190030 95 194 6.0 9.0 0.00 0.00 0.00 52 1017.2
20260830185539 94 140 5.0 7.0 0.00 0.00 0.00 53 1017.2
20260830185025 94 180 5.0 8.0 0.00 0.00 0.00 53 1017.3
20260830184532 94 162 5.0 8.0 0.00 0.00 0.00 53 1017.4
20260830184020 94 163 8.0 11.0 0.00 0.00 0.00 53 1017.4
20260830183526 94 160 6.0 9.0 0.00 0.00 0.00 53 1017.6
20260830183014 94 184 5.0 10.0 0.00 0.00 0.00 54 1017.6
20260830182521 93 175 6.0 9.0 0.00 0.00 0.00 55 1017.8
20260830182027 93 159 6.0 8.0 0.00 0.00 0.00 55 1017.8
20260830181556 93 165 7.0 10.0 0.00 0.00 0.00 55 1018.0
20260830181022 93 143 5.0 9.0 0.00 0.00 0.00 56 1018.1
20260830180549 93 133 6.0 10.0 0.00 0.00 0.00 57 1018.1
20260830180017 92 87 5.0 9.0 0.00 0.00 0.00 57 1018.4
20260830175524 93 169 7.0 11.0 0.00 0.00 0.00 57 1018.4
20260830175050 92 134 6.0 10.0 0.00 0.00 0.00 58 1018.5
20260830174538 91 178 5.0 9.0 0.00 0.00 0.00 57 1018.5
20260830174025 93 190 7.0 9.0 0.00 0.00 0.00 56 1018.6
20260830173532 93 165 6.0 8.0 0.00 0.00 0.00 56 1018.7
20260830173019 92 194 5.0 8.0 0.00 0.00 0.00 58 1018.7
20260830172607 92 151 7.0 9.0 0.00 0.00 0.00 57 1018.9
20260830172053 91 174 7.0 9.0 0.00 0.00 0.00 58 1018.9
20260830171521 91 158 6.0 8.0 0.00 0.00 0.00 58 1018.9
20260830171028 92 174 5.0 8.0 0.00 0.00 0.00 59 1018.9
20260830170516 91 184 4.0 8.0 0.00 0.00 0.00 61 1018.9
20260830170022 90 130 4.0 6.0 0.00 0.00 0.00 62 1019.1
20260830165529 90 139 7.0 9.0 0.00 0.00 0.00 62 1019.1
20260830165017 89 172 5.0 10.0 0.00 0.00 0.00 62 1019.1
20260830164524 90 148 8.0 10.0 0.00 0.00 0.00 62 1019.1
20260830164030 90 173 5.0 8.0 0.00 0.00 0.00 62 1019.1
20260830163518 90 219 4.0 8.0 0.00 0.00 0.00 63 1019.1
20260830163025 89 141 6.0 8.0 0.00 0.00 0.00 63 1019.1
20260830162531 89 196 7.0 9.0 0.00 0.00 0.00 64 1019.1
20260830162019 89 178 6.0 8.0 0.00 0.00 0.00 65 1019.1
20260830161526 89 172 5.0 8.0 0.00 0.00 0.00 66 1019.1
20260830161032 88 196 6.0 9.0 0.00 0.00 0.00 67 1019.1
20260830160526 88 215 5.0 9.0 0.00 0.00 0.00 68 1019.1
20260830160027 88 198 5.0 6.0 0.00 0.00 0.00 69 1018.9
20260830155515 87 197 5.0 9.0 0.00 0.00 0.00 69 1018.9
20260830155042 87 186 6.0 9.0 0.00 0.00 0.00 70 1018.9
20260830154529 86 185 5.0 8.0 0.00 0.00 0.00 70 1018.9
20260830154017 88 227 5.0 9.0 0.00 0.00 0.00 69 1018.9
20260830153524 88 207 5.0 8.0 0.00 0.00 0.00 69 1018.9
20260830153030 88 203 6.0 10.0 0.00 0.00 0.00 69 1018.9
20260830152518 88 224 4.0 9.0 0.00 0.00 0.00 70 1018.9
20260830152045 86 26 5.0 7.0 0.00 0.00 0.00 72 1018.9
20260830151531 85 192 7.0 10.0 0.00 0.00 0.00 73 1018.9
20260830151020 85 248 6.0 9.0 0.00 0.00 0.00 73 1018.9
20260830150526 85 207 6.0 9.0 0.00 0.00 0.00 73 1018.9